NOAA 16 DEB, 41417

Orbit data source: Space-Track

NOAA 16 DEB, 41417 is space debris in SSO originally from a launch on Thu, 21 Sep 2000 UTC launched from the Air Force Western Test Range (AFWTR). Debris objects in space refer to the collection of defunct objects orbiting the Earth. Examples of debris include non-operational satellites, rocket bodies, and fragments generated from explosions, collisions, or faulty payload assembly.

Loading next visibility...
Identifier
41417, 2000-055KW
Orbit
SSO
Country
Flag of USUS
Related business
Manufacturer
Unknown
Mission
Spacecraft
Bus & Motor
Unknown
Mass
Unknown
Launch date (UTC)
2000-09-21 (26 years ago)
Launch vehicle
Unknown
Launch site
Air Force Western Test Range (AFWTR)
Object type
Payload
Rocket body
Debris
Shape & HBR
Unknown shape, 0.1 m
Radar Cross Section
Medium (>0.1 m² and <1 m²)

Expand to show TLE details & history
Last TLE update: 3 days ago

TLE from 3 days ago
0 NOAA 16 DEB
1 41417U 00055KW  26170.69343020  .00003164  00000-0  11854-2 0  9995
2 41417  98.7296 263.4387 0015568 328.0298  31.9939 14.32360644533659
Epoch: 2026-06-19T16:38Z
TLE epoch observation values (Epoch: 2026-06-19T16:38:32.369Z)
Latitude
-0.00005°
Longitude
105.88509°
Altitude
777.328 km
Speed
7.47 km/s
True Right ascension
17h 33m 45s
True Declination
0° 00' 00"
Sunlit
Object was in full shadow at epoch
Visualization orbit readout
Latitude
Unknown
Longitude
Unknown
Altitude
Unknown
Speed
Unknown
Apparent Right ascension
Unknown
Apparent Declination
Unknown
Sunlit
N/A
Visualization observer readout
Local Sidereal Time
21:48:29
Azimuth
Unknown
Elevation
Unknown
Doppler factor
Unknown
Orbital elements
Apogee altitude
792.139 km
Perigee altitude
769.849 km
Semi-major axis
7,159.131 km
Eccentricity
0.00156
Inclination
98.7296°
RAAN
263.4387°
Arg. of periapsis
328.0298°
True anomaly
32.08858°
Mean anomaly
31.9939°
Eccentric anomaly
32.04122°
Mean motion
3.58305 °/min
Orbital period
100.47 mins
BSTAR
0.0011854
Loading maneuver chart data...
Computing Atmospheric mass density...
Loading historical data...
Loading historical data...
Loading historical data...
Loading historical data...
Loading historical data...
Loading historical data...
Loading historical data...

Documentation

Showing up to 5 results
|